Time,TemperatureF,DewpointF,PressureIn,WindDirection,WindDirectionDegrees,WindSpeedMPH,WindSpeedGustMPH,Humidity,HourlyPrecipIn,Conditions,Clouds,dailyrainin,SoftwareType,DateUTC
2013-02-05 00:02:00,49.1,30.7,29.91,NW,315,11.0,11.0,49,0.00,,,0.00,meteohub,2013-02-05 08:02:00,
2013-02-05 00:07:00,49.1,30.7,29.92,NW,315,11.0,11.0,49,0.00,,,0.00,meteohub,2013-02-05 08:07:00,
2013-02-05 00:12:00,49.1,30.2,29.91,NW,315,6.0,11.0,48,0.00,,,0.00,meteohub,2013-02-05 08:12:00,
2013-02-05 00:17:00,49.1,30.2,29.91,SW,225,8.0,11.0,48,0.00,,,0.00,meteohub,2013-02-05 08:17:00,
2013-02-05 00:22:00,49.1,29.7,29.91,NW,315,7.0,11.0,47,0.00,,,0.00,meteohub,2013-02-05 08:22:00,
2013-02-05 00:27:00,49.1,29.7,29.91,SW,225,4.0,11.0,47,0.00,,,0.00,meteohub,2013-02-05 08:27:00,
2013-02-05 00:32:00,48.9,29.7,29.91,West,270,5.0,8.0,47,0.00,,,0.00,meteohub,2013-02-05 08:32:00,
2013-02-05 00:37:00,48.9,29.7,29.91,SW,225,6.0,8.0,47,0.00,,,0.00,meteohub,2013-02-05 08:37:00,
2013-02-05 00:42:00,48.9,29.1,29.91,West,270,5.0,8.0,46,0.00,,,0.00,meteohub,2013-02-05 08:42:00,
2013-02-05 00:47:00,48.9,29.1,29.91,West,270,4.0,10.0,46,0.00,,,0.00,meteohub,2013-02-05 08:47:00,
2013-02-05 00:52:00,48.7,28.9,29.91,West,270,3.0,10.0,46,0.00,,,0.00,meteohub,2013-02-05 08:52:00,
2013-02-05 00:57:00,48.7,28.9,29.91,West,270,7.0,8.0,46,0.00,,,0.00,meteohub,2013-02-05 08:57:00,
2013-02-05 01:02:00,48.7,28.9,29.91,South,180,5.0,8.0,46,0.00,,,0.00,meteohub,2013-02-05 09:02:00,
2013-02-05 01:07:00,48.7,28.9,29.91,West,270,6.0,8.0,46,0.00,,,0.00,meteohub,2013-02-05 09:07:00,
2013-02-05 01:12:00,48.7,28.9,29.91,NW,315,4.0,8.0,46,0.00,,,0.00,meteohub,2013-02-05 09:12:00,
2013-02-05 01:17:00,48.7,28.9,29.91,West,270,7.0,8.0,46,0.00,,,0.00,meteohub,2013-02-05 09:17:00,
2013-02-05 01:22:00,48.7,28.4,29.90,West,270,4.0,9.0,45,0.00,,,0.00,meteohub,2013-02-05 09:22:00,
2013-02-05 01:27:00,48.7,28.4,29.91,SW,225,5.0,9.0,45,0.00,,,0.00,meteohub,2013-02-05 09:27:00,
2013-02-05 01:32:00,48.7,28.4,29.91,SW,225,5.0,9.0,45,0.00,,,0.00,meteohub,2013-02-05 09:32:00,
2013-02-05 01:37:00,48.7,28.4,29.91,NW,315,7.0,9.0,45,0.00,,,0.00,meteohub,2013-02-05 09:37:00,
2013-02-05 01:42:00,48.7,28.4,29.90,NW,315,5.0,9.0,45,0.00,,,0.00,meteohub,2013-02-05 09:42:00,
2013-02-05 01:47:00,48.7,28.4,29.90,NW,315,8.0,9.0,45,0.00,,,0.00,meteohub,2013-02-05 09:47:00,
2013-02-05 01:52:00,48.7,27.9,29.91,West,270,6.0,8.0,44,0.00,,,0.00,meteohub,2013-02-05 09:52:00,
2013-02-05 01:57:00,48.7,27.9,29.91,NW,315,4.0,8.0,44,0.00,,,0.00,meteohub,2013-02-05 09:57:00,
2013-02-05 02:02:00,48.7,27.9,29.91,West,270,6.0,8.0,44,0.00,,,0.00,meteohub,2013-02-05 10:02:00,
2013-02-05 02:07:00,48.7,27.9,29.91,West,270,6.0,8.0,44,0.00,,,0.00,meteohub,2013-02-05 10:07:00,
2013-02-05 02:12:00,48.7,27.9,29.90,West,270,2.0,6.0,44,0.00,,,0.00,meteohub,2013-02-05 10:12:00,
2013-02-05 02:17:00,48.7,27.9,29.90,SW,225,2.0,6.0,44,0.00,,,0.00,meteohub,2013-02-05 10:17:00,
2013-02-05 02:22:00,48.7,27.9,29.91,South,180,2.0,6.0,44,0.00,,,0.00,meteohub,2013-02-05 10:22:00,
2013-02-05 02:27:00,48.6,27.7,29.90,NW,315,1.0,3.0,44,0.00,,,0.00,meteohub,2013-02-05 10:27:00,
2013-02-05 02:32:00,48.6,27.7,29.90,SW,225,2.0,4.0,44,0.00,,,0.00,meteohub,2013-02-05 10:32:00,
2013-02-05 02:37:00,48.4,27.5,29.90,West,270,2.0,4.0,44,0.00,,,0.00,meteohub,2013-02-05 10:37:00,
2013-02-05 02:42:00,48.4,27.5,29.90,SSE,158,2.0,4.0,44,0.00,,,0.00,meteohub,2013-02-05 10:42:00,
2013-02-05 02:47:00,48.4,27.5,29.90,South,180,2.0,4.0,44,0.00,,,0.00,meteohub,2013-02-05 10:47:00,
2013-02-05 02:52:00,48.4,27.5,29.90,West,270,2.0,7.0,44,0.00,,,0.00,meteohub,2013-02-05 10:52:00,
2013-02-05 02:57:00,48.4,27.5,29.90,South,180,1.0,7.0,44,0.00,,,0.00,meteohub,2013-02-05 10:57:00,
2013-02-05 03:02:00,48.4,27.5,29.90,West,270,2.0,7.0,44,0.00,,,0.00,meteohub,2013-02-05 11:02:00,
2013-02-05 03:07:00,48.4,27.5,29.90,South,180,1.0,3.0,44,0.00,,,0.00,meteohub,2013-02-05 11:07:00,
2013-02-05 03:12:00,48.2,27.3,29.89,South,180,2.0,4.0,44,0.00,,,0.00,meteohub,2013-02-05 11:12:00,
2013-02-05 03:17:00,48.2,27.3,29.89,South,180,2.0,4.0,44,0.00,,,0.00,meteohub,2013-02-05 11:17:00,
2013-02-05 03:22:00,48.2,27.3,29.89,NW,315,2.0,4.0,44,0.00,,,0.00,meteohub,2013-02-05 11:22:00,
2013-02-05 03:27:00,48.2,27.3,29.89,South,180,2.0,4.0,44,0.00,,,0.00,meteohub,2013-02-05 11:27:00,
2013-02-05 03:32:00,48.0,27.7,29.89,South,180,1.0,4.0,45,0.00,,,0.00,meteohub,2013-02-05 11:32:00,
2013-02-05 03:37:00,48.0,27.7,29.89,East,90,1.0,4.0,45,0.00,,,0.00,meteohub,2013-02-05 11:37:00,
2013-02-05 03:42:00,48.0,27.7,29.89,SW,225,3.0,4.0,45,0.00,,,0.00,meteohub,2013-02-05 11:42:00,
2013-02-05 03:48:00,48.0,27.7,29.89,West,270,3.0,4.0,45,0.00,,,0.00,meteohub,2013-02-05 11:48:00,
2013-02-05 03:53:00,48.0,27.7,29.89,South,180,2.0,3.0,45,0.00,,,0.00,meteohub,2013-02-05 11:53:00,
2013-02-05 03:58:00,48.0,27.7,29.89,West,270,2.0,3.0,45,0.00,,,0.00,meteohub,2013-02-05 11:58:00,
2013-02-05 04:03:00,48.0,27.7,29.89,SE,135,1.0,3.0,45,0.00,,,0.00,meteohub,2013-02-05 12:03:00,
2013-02-05 04:09:00,48.2,27.3,29.89,West,270,2.0,3.0,44,0.00,,,0.00,meteohub,2013-02-05 12:09:00,
2013-02-05 04:14:00,48.2,27.9,29.89,SW,225,3.0,3.0,45,0.00,,,0.00,meteohub,2013-02-05 12:14:00,
2013-02-05 04:19:00,48.2,27.9,29.89,South,180,2.0,3.0,45,0.00,,,0.00,meteohub,2013-02-05 12:19:00,
2013-02-05 04:24:00,48.0,28.2,29.89,NW,315,2.0,3.0,46,0.00,,,0.00,meteohub,2013-02-05 12:24:00,
2013-02-05 04:29:00,48.0,28.2,29.89,South,180,4.0,4.0,46,0.00,,,0.00,meteohub,2013-02-05 12:29:00,
2013-02-05 04:34:00,48.0,28.2,29.89,SE,135,3.0,4.0,46,0.00,,,0.00,meteohub,2013-02-05 12:34:00,
2013-02-05 04:39:00,47.8,28.0,29.89,SE,135,1.0,4.0,46,0.00,,,0.00,meteohub,2013-02-05 12:39:00,
2013-02-05 04:44:00,47.7,27.9,29.89,South,180,2.0,4.0,46,0.00,,,0.00,meteohub,2013-02-05 12:44:00,
2013-02-05 04:49:00,47.7,27.9,29.89,East,90,2.0,4.0,46,0.00,,,0.00,meteohub,2013-02-05 12:49:00,
2013-02-05 04:54:00,47.7,27.9,29.88,SE,135,3.0,4.0,46,0.00,,,0.00,meteohub,2013-02-05 12:54:00,
2013-02-05 04:59:00,47.5,28.2,29.89,South,180,2.0,4.0,47,0.00,,,0.00,meteohub,2013-02-05 12:59:00,
2013-02-05 05:04:00,47.5,28.2,29.89,South,180,1.0,4.0,47,0.00,,,0.00,meteohub,2013-02-05 13:04:00,
2013-02-05 05:09:00,47.5,28.2,29.89,SE,135,2.0,4.0,47,0.00,,,0.00,meteohub,2013-02-05 13:09:00,
2013-02-05 05:15:00,47.5,28.8,29.89,SE,135,0.0,2.0,48,0.00,,,0.00,meteohub,2013-02-05 13:15:00,
2013-02-05 05:20:00,47.5,28.8,29.89,East,90,3.0,3.0,48,0.00,,,0.00,meteohub,2013-02-05 13:20:00,
2013-02-05 05:25:00,47.3,29.1,29.89,ENE,68,2.0,2.0,49,0.00,,,0.00,meteohub,2013-02-05 13:25:00,
2013-02-05 05:30:00,47.1,28.9,29.89,East,90,2.0,4.0,49,0.00,,,0.00,meteohub,2013-02-05 13:30:00,
2013-02-05 05:35:00,46.9,29.3,29.89,East,90,2.0,3.0,50,0.00,,,0.00,meteohub,2013-02-05 13:35:00,
2013-02-05 05:40:00,46.9,29.8,29.89,East,90,2.0,3.0,51,0.00,,,0.00,meteohub,2013-02-05 13:40:00,
2013-02-05 05:45:00,46.9,30.2,29.88,East,90,2.0,3.0,52,0.00,,,0.00,meteohub,2013-02-05 13:45:00,
2013-02-05 05:50:00,46.8,30.6,29.89,East,90,2.0,3.0,53,0.00,,,0.00,meteohub,2013-02-05 13:50:00,
2013-02-05 05:55:00,46.8,30.9,29.88,SE,135,6.0,6.0,54,0.00,,,0.00,meteohub,2013-02-05 13:55:00,
2013-02-05 06:00:00,46.6,31.3,29.88,SE,135,2.0,6.0,55,0.00,,,0.00,meteohub,2013-02-05 14:00:00,
2013-02-05 06:06:00,46.6,31.3,29.89,SE,135,2.0,6.0,55,0.00,,,0.00,meteohub,2013-02-05 14:06:00,
2013-02-05 06:11:00,46.4,31.6,29.89,South,180,1.0,6.0,56,0.00,,,0.00,meteohub,2013-02-05 14:11:00,
2013-02-05 06:16:00,46.4,31.6,29.89,SE,135,2.0,2.0,56,0.00,,,0.00,meteohub,2013-02-05 14:16:00,
2013-02-05 06:21:00,46.4,31.6,29.89,SE,135,2.0,2.0,56,0.00,,,0.00,meteohub,2013-02-05 14:21:00,
2013-02-05 06:26:00,46.4,32.0,29.89,SE,135,2.0,2.0,57,0.00,,,0.00,meteohub,2013-02-05 14:26:00,
2013-02-05 06:31:00,46.4,32.0,29.89,SE,135,2.0,2.0,57,0.00,,,0.00,meteohub,2013-02-05 14:31:00,
2013-02-05 06:36:00,46.2,31.8,29.89,SE,135,1.0,2.0,57,0.00,,,0.00,meteohub,2013-02-05 14:36:00,
2013-02-05 06:41:00,46.2,31.8,29.89,South,180,2.0,2.0,57,0.00,,,0.00,meteohub,2013-02-05 14:41:00,
2013-02-05 06:46:00,46.2,32.2,29.89,SE,135,3.0,3.0,58,0.00,,,0.00,meteohub,2013-02-05 14:46:00,
2013-02-05 06:51:00,46.2,32.2,29.89,SE,135,2.0,3.0,58,0.00,,,0.00,meteohub,2013-02-05 14:51:00,
2013-02-05 06:57:00,46.2,32.7,29.90,East,90,1.0,3.0,59,0.00,,,0.00,meteohub,2013-02-05 14:57:00,
2013-02-05 07:02:00,46.2,32.7,29.90,West,270,2.0,3.0,59,0.00,,,0.00,meteohub,2013-02-05 15:02:00,
2013-02-05 07:07:00,46.4,32.9,29.91,NW,315,3.0,3.0,59,0.00,,,0.00,meteohub,2013-02-05 15:07:00,
2013-02-05 07:12:00,46.4,32.9,29.91,West,270,2.0,3.0,59,0.00,,,0.00,meteohub,2013-02-05 15:12:00,
2013-02-05 07:17:00,46.4,32.9,29.91,West,270,2.0,3.0,59,0.00,,,0.00,meteohub,2013-02-05 15:17:00,
2013-02-05 07:22:00,46.6,33.1,29.91,West,270,2.0,3.0,59,0.00,,,0.00,meteohub,2013-02-05 15:22:00,
2013-02-05 07:27:00,46.6,33.1,29.91,West,270,0.0,2.0,59,0.00,,,0.00,meteohub,2013-02-05 15:27:00,
2013-02-05 07:32:00,46.6,33.1,29.91,West,270,1.0,2.0,59,0.00,,,0.00,meteohub,2013-02-05 15:32:00,
2013-02-05 07:37:00,46.6,33.1,29.91,West,270,2.0,2.0,59,0.00,,,0.00,meteohub,2013-02-05 15:37:00,
2013-02-05 07:42:00,46.8,33.3,29.91,West,270,2.0,2.0,59,0.00,,,0.00,meteohub,2013-02-05 15:42:00,
2013-02-05 07:48:00,46.8,33.3,29.92,West,270,2.0,3.0,59,0.00,,,0.00,meteohub,2013-02-05 15:48:00,
2013-02-05 07:53:00,46.9,33.4,29.92,NW,315,4.0,4.0,59,0.00,,,0.00,meteohub,2013-02-05 15:53:00,
2013-02-05 07:58:00,46.9,33.4,29.92,NW,315,3.0,4.0,59,0.00,,,0.00,meteohub,2013-02-05 15:58:00,
2013-02-05 08:03:00,46.9,33.4,29.92,NW,315,4.0,4.0,59,0.00,,,0.00,meteohub,2013-02-05 16:03:00,
2013-02-05 08:08:00,47.1,33.4,29.92,NW,315,3.0,4.0,59,0.00,,,0.00,meteohub,2013-02-05 16:08:00,
2013-02-05 08:13:00,47.1,33.4,29.92,NW,315,0.0,4.0,59,0.00,,,0.00,meteohub,2013-02-05 16:13:00,
2013-02-05 08:18:00,47.1,33.4,29.92,North,0,2.0,4.0,59,0.00,,,0.00,meteohub,2013-02-05 16:18:00,
2013-02-05 08:23:00,47.1,33.4,29.93,NW,315,2.0,4.0,59,0.00,,,0.00,meteohub,2013-02-05 16:23:00,
2013-02-05 08:28:00,47.3,33.6,29.93,NW,315,2.0,2.0,59,0.00,,,0.00,meteohub,2013-02-05 16:28:00,
2013-02-05 08:34:00,47.3,33.6,29.93,NW,315,3.0,3.0,59,0.00,,,0.00,meteohub,2013-02-05 16:34:00,
2013-02-05 08:39:00,47.3,33.6,29.94,North,0,0.0,3.0,59,0.00,,,0.00,meteohub,2013-02-05 16:39:00,
2013-02-05 08:44:00,47.3,33.6,29.94,NE,45,2.0,3.0,59,0.00,,,0.00,meteohub,2013-02-05 16:44:00,
2013-02-05 08:49:00,47.3,33.6,29.94,NW,315,2.0,3.0,59,0.00,,,0.00,meteohub,2013-02-05 16:49:00,
2013-02-05 08:54:00,47.3,33.6,29.94,West,270,1.0,2.0,59,0.00,,,0.00,meteohub,2013-02-05 16:54:00,
2013-02-05 08:59:00,47.3,33.6,29.94,NW,315,1.0,2.0,59,0.00,,,0.00,meteohub,2013-02-05 16:59:00,
2013-02-05 09:04:00,47.3,33.3,29.94,East,90,2.0,2.0,58,0.00,,,0.00,meteohub,2013-02-05 17:04:00,
2013-02-05 09:09:00,47.3,33.3,29.94,NE,45,2.0,3.0,58,0.00,,,0.00,meteohub,2013-02-05 17:09:00,
2013-02-05 09:15:00,47.3,33.3,29.94,East,90,1.0,3.0,58,0.00,,,0.00,meteohub,2013-02-05 17:15:00,
2013-02-05 09:20:00,47.5,33.1,29.94,NE,45,2.0,3.0,57,0.00,,,0.00,meteohub,2013-02-05 17:20:00,
2013-02-05 09:25:00,47.5,33.1,29.94,East,90,2.0,2.0,57,0.00,,,0.00,meteohub,2013-02-05 17:25:00,
2013-02-05 09:30:00,47.5,33.1,29.95,NE,45,2.0,2.0,57,0.00,,,0.00,meteohub,2013-02-05 17:30:00,
2013-02-05 09:35:00,47.5,33.1,29.95,SE,135,2.0,2.0,57,0.00,,,0.00,meteohub,2013-02-05 17:35:00,
2013-02-05 09:40:00,47.5,32.5,29.95,SE,135,1.0,2.0,56,0.00,,,0.00,meteohub,2013-02-05 17:40:00,
2013-02-05 09:45:00,47.5,32.5,29.95,NE,45,2.0,2.0,56,0.00,,,0.00,meteohub,2013-02-05 17:45:00,
2013-02-05 09:50:00,47.5,32.5,29.95,SE,135,2.0,2.0,56,0.00,,,0.00,meteohub,2013-02-05 17:50:00,
2013-02-05 09:55:00,47.5,32.5,29.95,SE,135,2.0,2.0,56,0.00,,,0.00,meteohub,2013-02-05 17:55:00,
2013-02-05 10:01:00,47.3,32.4,29.95,SE,135,2.0,2.0,56,0.00,,,0.00,meteohub,2013-02-05 18:01:00,
2013-02-05 10:06:00,47.3,32.0,29.95,SE,135,2.0,2.0,55,0.00,,,0.00,meteohub,2013-02-05 18:06:00,
2013-02-05 10:11:00,47.3,32.0,29.95,South,180,2.0,2.0,55,0.00,,,0.00,meteohub,2013-02-05 18:11:00,
2013-02-05 10:16:00,47.3,32.0,29.95,SE,135,2.0,2.0,55,0.00,,,0.00,meteohub,2013-02-05 18:16:00,
2013-02-05 10:21:00,47.3,32.4,29.95,SE,135,2.0,2.0,56,0.00,,,0.00,meteohub,2013-02-05 18:21:00,
2013-02-05 10:26:00,47.3,32.4,29.95,SE,135,2.0,2.0,56,0.00,,,0.00,meteohub,2013-02-05 18:26:00,
2013-02-05 10:31:00,47.5,32.5,29.96,SE,135,1.0,3.0,56,0.00,,,0.00,meteohub,2013-02-05 18:31:00,
2013-02-05 10:36:00,47.5,32.5,29.95,East,90,1.0,3.0,56,0.00,,,0.00,meteohub,2013-02-05 18:36:00,
2013-02-05 10:42:00,47.7,32.7,29.95,SE,135,1.0,3.0,56,0.00,,,0.00,meteohub,2013-02-05 18:42:00,
2013-02-05 10:47:00,47.8,32.9,29.95,North,0,2.0,3.0,56,0.00,,,0.00,meteohub,2013-02-05 18:47:00,
2013-02-05 10:52:00,47.8,32.9,29.95,SE,135,0.0,2.0,56,0.00,,,0.00,meteohub,2013-02-05 18:52:00,
2013-02-05 10:57:00,47.8,32.9,29.95,West,270,2.0,2.0,56,0.00,,,0.00,meteohub,2013-02-05 18:57:00,
2013-02-05 11:02:00,47.8,32.9,29.95,SW,225,0.0,2.0,56,0.00,,,0.00,meteohub,2013-02-05 19:02:00,
2013-02-05 11:07:00,48.0,33.1,29.95,North,0,2.0,2.0,56,0.00,,,0.00,meteohub,2013-02-05 19:07:00,
2013-02-05 11:12:00,48.2,32.7,29.95,NW,315,3.0,3.0,55,0.00,,,0.00,meteohub,2013-02-05 19:12:00,
2013-02-05 11:17:00,48.2,32.4,29.95,NW,315,2.0,3.0,54,0.00,,,0.00,meteohub,2013-02-05 19:17:00,
2013-02-05 11:22:00,48.4,32.5,29.95,North,0,3.0,4.0,54,0.00,,,0.00,meteohub,2013-02-05 19:22:00,
2013-02-05 11:27:00,48.7,32.9,29.94,NW,315,5.0,5.0,54,0.00,,,0.00,meteohub,2013-02-05 19:27:00,
2013-02-05 11:32:00,48.9,33.1,29.94,NNW,338,4.0,5.0,54,0.00,,,0.00,meteohub,2013-02-05 19:32:00,
2013-02-05 11:37:00,48.9,33.1,29.94,WNW,293,5.0,7.0,54,0.00,,,0.00,meteohub,2013-02-05 19:37:00,
2013-02-05 11:42:00,48.9,32.0,29.94,NW,315,6.0,7.0,52,0.00,,,0.00,meteohub,2013-02-05 19:42:00,
2013-02-05 11:47:00,48.9,31.1,29.94,North,0,4.0,7.0,50,0.00,,,0.00,meteohub,2013-02-05 19:47:00,
2013-02-05 11:52:00,49.1,30.2,29.94,NW,315,3.0,6.0,48,0.00,,,0.00,meteohub,2013-02-05 19:52:00,
2013-02-05 11:58:00,49.5,30.0,29.94,West,270,1.0,6.0,47,0.00,,,0.00,meteohub,2013-02-05 19:58:00,
2013-02-05 12:03:00,50.0,29.5,29.94,East,90,2.0,4.0,45,0.00,,,0.00,meteohub,2013-02-05 20:03:00,
2013-02-05 12:08:00,50.2,29.1,29.93,NW,315,1.0,4.0,44,0.00,,,0.00,meteohub,2013-02-05 20:08:00,
2013-02-05 12:13:00,50.2,28.6,29.93,North,0,3.0,4.0,43,0.00,,,0.00,meteohub,2013-02-05 20:13:00,
2013-02-05 12:18:00,50.0,28.4,29.93,East,90,4.0,4.0,43,0.00,,,0.00,meteohub,2013-02-05 20:18:00,
2013-02-05 12:23:00,50.0,27.9,29.93,NW,315,3.0,5.0,42,0.00,,,0.00,meteohub,2013-02-05 20:23:00,
2013-02-05 12:28:00,50.2,26.8,29.93,SE,135,3.0,5.0,40,0.00,,,0.00,meteohub,2013-02-05 20:28:00,
2013-02-05 12:33:00,50.4,26.4,29.93,North,0,2.0,5.0,39,0.00,,,0.00,meteohub,2013-02-05 20:33:00,
2013-02-05 12:38:00,50.7,24.8,29.93,East,90,3.0,4.0,36,0.00,,,0.00,meteohub,2013-02-05 20:38:00,
2013-02-05 12:43:00,51.1,24.4,29.92,NW,315,2.0,4.0,35,0.00,,,0.00,meteohub,2013-02-05 20:43:00,
2013-02-05 12:49:00,51.4,24.6,29.93,WSW,248,3.0,4.0,35,0.00,,,0.00,meteohub,2013-02-05 20:49:00,
2013-02-05 12:54:00,51.4,22.6,29.92,NW,315,3.0,4.0,32,0.00,,,0.00,meteohub,2013-02-05 20:54:00,
2013-02-05 12:59:00,51.8,22.1,29.92,East,90,2.0,4.0,31,0.00,,,0.00,meteohub,2013-02-05 20:59:00,
2013-02-05 13:04:00,51.8,22.1,29.92,North,0,2.0,4.0,31,0.00,,,0.00,meteohub,2013-02-05 21:04:00,
2013-02-05 13:09:00,52.0,21.6,29.92,NE,45,2.0,3.0,30,0.00,,,0.00,meteohub,2013-02-05 21:09:00,
2013-02-05 13:14:00,52.0,21.6,29.91,SE,135,3.0,3.0,30,0.00,,,0.00,meteohub,2013-02-05 21:14:00,
2013-02-05 13:19:00,51.8,21.4,29.92,West,270,5.0,5.0,30,0.00,,,0.00,meteohub,2013-02-05 21:19:00,
2013-02-05 13:25:00,51.6,21.9,29.91,North,0,4.0,4.0,31,0.00,,,0.00,meteohub,2013-02-05 21:25:00,
2013-02-05 13:30:00,52.0,21.6,29.91,NW,315,3.0,5.0,30,0.00,,,0.00,meteohub,2013-02-05 21:30:00,
2013-02-05 13:35:00,52.5,21.9,29.91,NW,315,7.0,7.0,30,0.00,,,0.00,meteohub,2013-02-05 21:35:00,
2013-02-05 13:40:00,52.2,20.1,29.91,West,270,4.0,7.0,28,0.00,,,0.00,meteohub,2013-02-05 21:40:00,
2013-02-05 13:45:00,52.0,20.7,29.91,West,270,4.0,7.0,29,0.00,,,0.00,meteohub,2013-02-05 21:45:00,
2013-02-05 13:50:00,51.8,19.8,29.91,West,270,3.0,7.0,28,0.00,,,0.00,meteohub,2013-02-05 21:50:00,
2013-02-05 13:55:00,51.8,20.5,29.91,SW,225,4.0,6.0,29,0.00,,,0.00,meteohub,2013-02-05 21:55:00,
2013-02-05 14:01:00,51.8,20.5,29.91,NW,315,4.0,6.0,29,0.00,,,0.00,meteohub,2013-02-05 22:01:00,
2013-02-05 14:06:00,51.8,20.5,29.91,NW,315,8.0,8.0,29,0.00,,,0.00,meteohub,2013-02-05 22:06:00,
2013-02-05 14:11:00,51.8,19.8,29.91,West,270,6.0,8.0,28,0.00,,,0.00,meteohub,2013-02-05 22:11:00,
2013-02-05 14:16:00,51.8,19.8,29.91,SW,225,4.0,8.0,28,0.00,,,0.00,meteohub,2013-02-05 22:16:00,
2013-02-05 14:21:00,51.8,19.8,29.91,West,270,6.0,9.0,28,0.00,,,0.00,meteohub,2013-02-05 22:21:00,
2013-02-05 14:26:00,51.8,19.8,29.91,NW,315,6.0,9.0,28,0.00,,,0.00,meteohub,2013-02-05 22:26:00,
2013-02-05 14:31:00,51.6,20.3,29.91,West,270,4.0,8.0,29,0.00,,,0.00,meteohub,2013-02-05 22:31:00,
2013-02-05 14:36:00,51.6,20.3,29.91,West,270,8.0,8.0,29,0.00,,,0.00,meteohub,2013-02-05 22:36:00,
2013-02-05 14:41:00,51.4,20.3,29.91,West,270,6.0,9.0,29,0.00,,,0.00,meteohub,2013-02-05 22:41:00,
2013-02-05 14:47:00,51.6,20.3,29.91,NW,315,5.0,9.0,29,0.00,,,0.00,meteohub,2013-02-05 22:47:00,
2013-02-05 14:52:00,51.8,19.8,29.91,NW,315,4.0,9.0,28,0.00,,,0.00,meteohub,2013-02-05 22:52:00,
2013-02-05 14:57:00,52.3,20.1,29.91,NW,315,7.0,10.0,28,0.00,,,0.00,meteohub,2013-02-05 22:57:00,
2013-02-05 15:02:00,52.7,20.5,29.91,West,270,8.0,10.0,28,0.00,,,0.00,meteohub,2013-02-05 23:02:00,
2013-02-05 15:07:00,52.9,20.7,29.91,NW,315,7.0,10.0,28,0.00,,,0.00,meteohub,2013-02-05 23:07:00,
2013-02-05 15:12:00,53.1,20.8,29.91,NW,315,10.0,10.0,28,0.00,,,0.00,meteohub,2013-02-05 23:12:00,
2013-02-05 15:17:00,53.4,20.3,29.91,NW,315,7.0,10.0,27,0.00,,,0.00,meteohub,2013-02-05 23:17:00,
2013-02-05 15:22:00,53.1,19.9,29.91,West,270,11.0,11.0,27,0.00,,,0.00,meteohub,2013-02-05 23:22:00,
2013-02-05 15:27:00,53.1,19.9,29.91,West,270,7.0,11.0,27,0.00,,,0.00,meteohub,2013-02-05 23:27:00,
2013-02-05 15:32:00,52.9,19.8,29.91,West,270,7.0,11.0,27,0.00,,,0.00,meteohub,2013-02-05 23:32:00,
2013-02-05 15:37:00,53.2,20.1,29.91,West,270,5.0,11.0,27,0.00,,,0.00,meteohub,2013-02-05 23:37:00,
2013-02-05 15:42:00,53.6,19.6,29.91,West,270,8.0,10.0,26,0.00,,,0.00,meteohub,2013-02-05 23:42:00,
2013-02-05 15:47:00,53.6,19.6,29.92,West,270,9.0,10.0,26,0.00,,,0.00,meteohub,2013-02-05 23:47:00,
2013-02-05 15:52:00,53.2,20.1,29.91,West,270,9.0,10.0,27,0.00,,,0.00,meteohub,2013-02-05 23:52:00,
2013-02-05 15:57:00,53.2,21.0,29.91,West,270,8.0,11.0,28,0.00,,,0.00,meteohub,2013-02-05 23:57:00,
2013-02-05 16:02:00,52.9,20.7,29.92,NW,315,9.0,11.0,28,0.00,,,0.00,meteohub,2013-02-06 00:02:00,
2013-02-05 16:07:00,52.9,20.7,29.92,West,270,9.0,11.0,28,0.00,,,0.00,meteohub,2013-02-06 00:07:00,
2013-02-05 16:12:00,53.1,20.8,29.92,SW,225,11.0,11.0,28,0.00,,,0.00,meteohub,2013-02-06 00:12:00,
2013-02-05 16:17:00,53.1,20.8,29.92,West,270,8.0,11.0,28,0.00,,,0.00,meteohub,2013-02-06 00:17:00,
2013-02-05 16:22:00,53.4,21.2,29.92,NW,315,8.0,11.0,28,0.00,,,0.00,meteohub,2013-02-06 00:22:00,
2013-02-05 16:28:00,53.6,19.6,29.92,NW,315,12.0,12.0,26,0.00,,,0.00,meteohub,2013-02-06 00:28:00,
2013-02-05 16:33:00,53.6,19.6,29.92,NW,315,11.0,14.0,26,0.00,,,0.00,meteohub,2013-02-06 00:33:00,
2013-02-05 16:38:00,53.6,19.6,29.92,NW,315,11.0,14.0,26,0.00,,,0.00,meteohub,2013-02-06 00:38:00,
2013-02-05 16:43:00,53.6,19.6,29.92,West,270,6.0,14.0,26,0.00,,,0.00,meteohub,2013-02-06 00:43:00,
2013-02-05 16:48:00,53.8,20.7,29.92,West,270,8.0,11.0,27,0.00,,,0.00,meteohub,2013-02-06 00:48:00,
2013-02-05 16:53:00,53.6,20.5,29.93,NW,315,6.0,11.0,27,0.00,,,0.00,meteohub,2013-02-06 00:53:00,
2013-02-05 16:58:00,53.6,20.5,29.92,NW,315,10.0,12.0,27,0.00,,,0.00,meteohub,2013-02-06 00:58:00,
2013-02-05 17:04:00,53.6,21.2,29.92,West,270,9.0,12.0,28,0.00,,,0.00,meteohub,2013-02-06 01:04:00,
2013-02-05 17:09:00,53.4,22.8,29.92,West,270,7.0,11.0,30,0.00,,,0.00,meteohub,2013-02-06 01:09:00,
2013-02-05 17:14:00,53.1,22.5,29.93,NW,315,4.0,11.0,30,0.00,,,0.00,meteohub,2013-02-06 01:14:00,
2013-02-05 17:19:00,52.9,22.3,29.93,West,270,4.0,11.0,30,0.00,,,0.00,meteohub,2013-02-06 01:19:00,
2013-02-05 17:24:00,52.7,22.1,29.93,NW,315,4.0,9.0,30,0.00,,,0.00,meteohub,2013-02-06 01:24:00,
2013-02-05 17:29:00,52.3,21.7,29.93,West,270,2.0,8.0,30,0.00,,,0.00,meteohub,2013-02-06 01:29:00,
2013-02-05 17:34:00,52.2,20.8,29.93,NW,315,2.0,7.0,29,0.00,,,0.00,meteohub,2013-02-06 01:34:00,
2013-02-05 17:39:00,51.8,21.4,29.94,West,270,4.0,4.0,30,0.00,,,0.00,meteohub,2013-02-06 01:39:00,
2013-02-05 17:45:00,51.6,21.9,29.93,West,270,4.0,7.0,31,0.00,,,0.00,meteohub,2013-02-06 01:45:00,
2013-02-05 17:50:00,51.4,21.7,29.93,West,270,4.0,7.0,31,0.00,,,0.00,meteohub,2013-02-06 01:50:00,
2013-02-05 17:55:00,51.4,21.7,29.93,West,270,4.0,6.0,31,0.00,,,0.00,meteohub,2013-02-06 01:55:00,
2013-02-05 18:00:00,51.3,22.5,29.93,West,270,3.0,4.0,32,0.00,,,0.00,meteohub,2013-02-06 02:00:00,
2013-02-05 18:05:00,51.3,22.5,29.93,West,270,3.0,4.0,32,0.00,,,0.00,meteohub,2013-02-06 02:05:00,
2013-02-05 18:10:00,50.9,22.8,29.93,West,270,2.0,4.0,33,0.00,,,0.00,meteohub,2013-02-06 02:10:00,
2013-02-05 18:15:00,50.5,22.5,29.93,West,270,2.0,3.0,33,0.00,,,0.00,meteohub,2013-02-06 02:15:00,
2013-02-05 18:21:00,50.4,22.3,29.93,West,270,3.0,3.0,33,0.00,,,0.00,meteohub,2013-02-06 02:21:00,
2013-02-05 18:26:00,50.2,22.8,29.93,WSW,248,4.0,4.0,34,0.00,,,0.00,meteohub,2013-02-06 02:26:00,
2013-02-05 18:31:00,50.0,22.6,29.93,West,270,4.0,4.0,34,0.00,,,0.00,meteohub,2013-02-06 02:31:00,
2013-02-05 18:36:00,49.8,23.9,29.93,West,270,3.0,4.0,36,0.00,,,0.00,meteohub,2013-02-06 02:36:00,
2013-02-05 18:41:00,49.6,24.4,29.94,West,270,4.0,5.0,37,0.00,,,0.00,meteohub,2013-02-06 02:41:00,
2013-02-05 18:46:00,49.5,25.0,29.93,NW,315,5.0,5.0,38,0.00,,,0.00,meteohub,2013-02-06 02:46:00,
2013-02-05 18:51:00,49.5,25.5,29.93,West,270,4.0,5.0,39,0.00,,,0.00,meteohub,2013-02-06 02:51:00,
2013-02-05 18:56:00,49.5,26.8,29.94,West,270,4.0,5.0,41,0.00,,,0.00,meteohub,2013-02-06 02:56:00,
2013-02-05 19:01:00,49.5,27.3,29.94,NW,315,5.0,6.0,42,0.00,,,0.00,meteohub,2013-02-06 03:01:00,
2013-02-05 19:07:00,49.5,28.4,29.94,West,270,4.0,6.0,44,0.00,,,0.00,meteohub,2013-02-06 03:07:00,
2013-02-05 19:12:00,49.5,28.4,29.94,West,270,3.0,6.0,44,0.00,,,0.00,meteohub,2013-02-06 03:12:00,
2013-02-05 19:17:00,49.5,28.9,29.94,West,270,3.0,6.0,45,0.00,,,0.00,meteohub,2013-02-06 03:17:00,
2013-02-05 19:22:00,49.3,28.8,29.94,North,0,3.0,5.0,45,0.00,,,0.00,meteohub,2013-02-06 03:22:00,
2013-02-05 19:27:00,49.1,28.8,29.94,West,270,3.0,4.0,45,0.00,,,0.00,meteohub,2013-02-06 03:27:00,
2013-02-05 19:32:00,49.1,28.8,29.94,West,270,3.0,4.0,45,0.00,,,0.00,meteohub,2013-02-06 03:32:00,
2013-02-05 19:37:00,49.1,28.8,29.94,West,270,3.0,4.0,45,0.00,,,0.00,meteohub,2013-02-06 03:37:00,
2013-02-05 19:42:00,48.9,29.1,29.94,NW,315,3.0,4.0,46,0.00,,,0.00,meteohub,2013-02-06 03:42:00,
2013-02-05 19:47:00,48.9,29.1,29.94,West,270,4.0,4.0,46,0.00,,,0.00,meteohub,2013-02-06 03:47:00,
2013-02-05 19:52:00,48.7,28.9,29.94,West,270,4.0,4.0,46,0.00,,,0.00,meteohub,2013-02-06 03:52:00,
2013-02-05 19:57:00,48.7,28.9,29.94,SW,225,4.0,4.0,46,0.00,,,0.00,meteohub,2013-02-06 03:57:00,
2013-02-05 20:02:00,48.7,28.9,29.94,West,270,3.0,4.0,46,0.00,,,0.00,meteohub,2013-02-06 04:02:00,
2013-02-05 20:07:00,48.7,28.9,29.94,West,270,3.0,4.0,46,0.00,,,0.00,meteohub,2013-02-06 04:07:00,
2013-02-05 20:12:00,48.6,29.3,29.94,West,270,3.0,4.0,47,0.00,,,0.00,meteohub,2013-02-06 04:12:00,
2013-02-05 20:17:00,48.4,29.1,29.95,SW,225,2.0,3.0,47,0.00,,,0.00,meteohub,2013-02-06 04:17:00,
2013-02-05 20:22:00,48.2,28.9,29.95,South,180,1.0,3.0,47,0.00,,,0.00,meteohub,2013-02-06 04:22:00,
2013-02-05 20:27:00,48.0,29.3,29.95,SW,225,1.0,3.0,48,0.00,,,0.00,meteohub,2013-02-06 04:27:00,
2013-02-05 20:32:00,47.8,29.1,29.95,South,180,1.0,2.0,48,0.00,,,0.00,meteohub,2013-02-06 04:32:00,
2013-02-05 20:38:00,47.5,28.8,29.95,West,270,2.0,2.0,48,0.00,,,0.00,meteohub,2013-02-06 04:38:00,
2013-02-05 20:43:00,47.5,28.8,29.95,West,270,3.0,3.0,48,0.00,,,0.00,meteohub,2013-02-06 04:43:00,
2013-02-05 20:48:00,47.5,28.8,29.95,West,270,3.0,3.0,48,0.00,,,0.00,meteohub,2013-02-06 04:48:00,
2013-02-05 20:53:00,47.5,29.3,29.95,West,270,2.0,3.0,49,0.00,,,0.00,meteohub,2013-02-06 04:53:00,
2013-02-05 20:58:00,47.3,29.1,29.95,West,270,2.0,3.0,49,0.00,,,0.00,meteohub,2013-02-06 04:58:00,
2013-02-05 21:00:00,47.3,29.1,29.95,SW,225,2.0,3.0,49,0.00,,,0.00,meteohub,2013-02-06 05:00:00,
2013-02-05 21:02:00,47.1,28.9,29.95,West,270,3.0,3.0,49,0.00,,,0.00,meteohub,2013-02-06 05:02:00,
2013-02-05 21:07:00,47.1,28.9,29.95,West,270,3.0,3.0,49,0.00,,,0.00,meteohub,2013-02-06 05:07:00,
2013-02-05 21:12:00,47.1,29.5,29.95,West,270,3.0,3.0,50,0.00,,,0.00,meteohub,2013-02-06 05:12:00,
2013-02-05 21:17:00,47.1,29.8,29.95,SW,225,3.0,4.0,51,0.00,,,0.00,meteohub,2013-02-06 05:17:00,
2013-02-05 21:22:00,47.3,30.0,29.95,SW,225,4.0,4.0,51,0.00,,,0.00,meteohub,2013-02-06 05:22:00,
2013-02-05 21:27:00,47.3,30.6,29.96,West,270,3.0,4.0,52,0.00,,,0.00,meteohub,2013-02-06 05:27:00,
2013-02-05 21:32:00,47.1,30.9,29.96,West,270,2.0,4.0,53,0.00,,,0.00,meteohub,2013-02-06 05:32:00,
2013-02-05 21:38:00,47.1,30.9,29.96,SW,225,3.0,4.0,53,0.00,,,0.00,meteohub,2013-02-06 05:38:00,
2013-02-05 21:43:00,47.1,30.9,29.95,SW,225,2.0,4.0,53,0.00,,,0.00,meteohub,2013-02-06 05:43:00,
2013-02-05 21:48:00,47.1,31.3,29.96,SW,225,3.0,4.0,54,0.00,,,0.00,meteohub,2013-02-06 05:48:00,
2013-02-05 21:53:00,47.3,31.5,29.96,SW,225,2.0,4.0,54,0.00,,,0.00,meteohub,2013-02-06 05:53:00,
2013-02-05 21:58:00,47.3,32.0,29.96,West,270,2.0,3.0,55,0.00,,,0.00,meteohub,2013-02-06 05:58:00,
2013-02-05 22:03:00,47.3,32.0,29.96,West,270,3.0,3.0,55,0.00,,,0.00,meteohub,2013-02-06 06:03:00,
2013-02-05 22:08:00,46.9,31.6,29.96,SW,225,2.0,3.0,55,0.00,,,0.00,meteohub,2013-02-06 06:08:00,
2013-02-05 22:13:00,46.9,31.6,29.96,West,270,2.0,3.0,55,0.00,,,0.00,meteohub,2013-02-06 06:13:00,
2013-02-05 22:18:00,46.8,31.5,29.96,SW,225,3.0,3.0,55,0.00,,,0.00,meteohub,2013-02-06 06:18:00,
2013-02-05 22:23:00,46.8,31.5,29.96,West,270,3.0,3.0,55,0.00,,,0.00,meteohub,2013-02-06 06:23:00,
2013-02-05 22:28:00,46.8,31.5,29.96,West,270,3.0,4.0,55,0.00,,,0.00,meteohub,2013-02-06 06:28:00,
2013-02-05 22:33:00,46.8,31.5,29.96,West,270,2.0,4.0,55,0.00,,,0.00,meteohub,2013-02-06 06:33:00,
2013-02-05 22:38:00,46.6,31.3,29.96,West,270,2.0,4.0,55,0.00,,,0.00,meteohub,2013-02-06 06:38:00,
2013-02-05 22:44:00,46.4,31.1,29.96,West,270,2.0,4.0,55,0.00,,,0.00,meteohub,2013-02-06 06:44:00,
2013-02-05 22:49:00,46.2,30.6,29.96,SW,225,2.0,3.0,54,0.00,,,0.00,meteohub,2013-02-06 06:49:00,
2013-02-05 22:54:00,46.0,30.4,29.96,SW,225,2.0,2.0,54,0.00,,,0.00,meteohub,2013-02-06 06:54:00,
2013-02-05 22:59:00,46.0,30.4,29.96,West,270,2.0,2.0,54,0.00,,,0.00,meteohub,2013-02-06 06:59:00,
2013-02-05 23:04:00,46.0,30.4,29.96,West,270,2.0,2.0,54,0.00,,,0.00,meteohub,2013-02-06 07:04:00,
2013-02-05 23:09:00,46.0,30.4,29.97,West,270,3.0,3.0,54,0.00,,,0.00,meteohub,2013-02-06 07:09:00,
2013-02-05 23:14:00,46.0,30.4,29.97,West,270,1.0,3.0,54,0.00,,,0.00,meteohub,2013-02-06 07:14:00,
2013-02-05 23:19:00,46.0,30.7,29.96,West,270,2.0,3.0,55,0.00,,,0.00,meteohub,2013-02-06 07:19:00,
2013-02-05 23:24:00,46.0,30.7,29.97,SW,225,2.0,3.0,55,0.00,,,0.00,meteohub,2013-02-06 07:24:00,
2013-02-05 23:29:00,46.2,30.9,29.97,West,270,2.0,3.0,55,0.00,,,0.00,meteohub,2013-02-06 07:29:00,
2013-02-05 23:34:00,46.4,31.6,29.97,West,270,2.0,3.0,56,0.00,,,0.00,meteohub,2013-02-06 07:34:00,
2013-02-05 23:39:00,46.4,31.6,29.97,SW,225,2.0,4.0,56,0.00,,,0.00,meteohub,2013-02-06 07:39:00,
2013-02-05 23:44:00,46.2,30.9,29.97,West,270,2.0,4.0,55,0.00,,,0.00,meteohub,2013-02-06 07:44:00,
2013-02-05 23:50:00,46.0,30.7,29.96,West,270,1.0,4.0,55,0.00,,,0.00,meteohub,2013-02-06 07:50:00,
2013-02-05 23:55:00,45.9,30.6,29.97,SW,225,1.0,2.0,55,0.00,,,0.00,meteohub,2013-02-06 07:55:00,